Location: ????? ???????
(25.7275°N, 32.5929°E)
Time: 11:26:52
(UTC+00:00)

Cosmos 1486 Rocket - Pass Details

Date: 02 March 2021
Orbit: 758 x 784 km, 74.1° (Epoch: 15 April)

Event Time Altitude Azimuth Distance (km) Brightness Sun altitude
Rises 16:53:35 0° 351° (N) 3,251 7.4 -14.7°
Reaches altitude 10° 16:56:01 10° 356° (N) 2,326 6.5 -15.2°
Maximum altitude 17:01:11 55° 73° (ENE) 934 4.1 -16.4°
Drops below altitude 10° 17:06:22 10° 151° (SSE) 2,328 6.2 -17.5°
Enters shadow 17:08:07 - 155° (SSE) 2,991 6.8 -17.9°
